スコッティ彗星

P/2003 L1 ( Scotti )

English version
Home page
Updated on June 28, 2003

---------------------------------------------------------------------

・ プロフィール

発見日 2003年6月4日
発見光度 19.7等
発見者 J. V. Scotti (Kitt Peak)

・ 軌道要素

Epoch 2003 Mar. 22.0 TT = JDT 2452720.5
T 2003 Mar. 7.67544 TT                                  MPC
q   5.0097226            (2000.0)            P               Q
n   0.05686361     Peri.  355.19266     -0.75130883     +0.65022150
a   6.6975059      Node   226.03859     -0.60014411     -0.74431427
e   0.2520018      Incl.    9.02419     -0.27452158     -0.15234261
P  17.33

・ 星図

・ 光度変化

        m1 = 9.0 + 5 logΔ + 10.0 log r

---------------------------------------------------------------------

軌道要素はM.P.E.C. 2003-M21に掲載されたものです。
星図は StellaNavigator Ver.2.0 for Windows (アストロアーツ 編著 / アスキー出版局刊) で作成したものです。
光度グラフはComet for Windowsで作成したものです。

---------------------------------------------------------------------

Copyright(C) Seiichi Yoshida (comet@aerith.net). All rights reserved.